Regional Weather Roundup
Issued by NWS

Home | Current Version | Previous Version | Text Only | Print | Product List | Glossary Off
Versions: 1 2 3 4 5 6 7 8 9 10 11 12 13 14 15 16 17 18 19 20 21 22 23 24 25 26 27 28 29 30 31 32 33 34 35 36 37 38 39 40 41 42 43 44 45 46 47 48 49 50

000
ASUS43 KFSD 221802
RWRSD

WEATHER ROUNDUP FOR SOUTH DAKOTA
NATIONAL WEATHER SERVICE SIOUX FALLS SD
100 PM CDT FRI AUG 22 2014

NOTE: "FAIR" INDICATES FEW OR NO CLOUDS BELOW 12,000 FEET WITH NO
SIGNIFICANT WEATHER AND/OR OBSTRUCTIONS TO VISIBILITY.


SDZ001>005-009-010-012>017-221900-
NORTHWEST AND NORTH CENTRAL SOUTH DAKOTA

CITY           SKY/WX    TMP DP  RH WIND       PRES   REMARKS
BUFFALO          N/A     69  58  67 NE3       30.02S
FAITH            N/A     67  62  84 NE10      30.06S
MOBRIDGE       LGT RAIN  70  67  90 N10       30.03S
$$

SDZ012>016-024>037-041>051-057-063-072>074-221900-
SOUTHWEST AND SOUTH CENTRAL SOUTH DAKOTA

CITY           SKY/WX    TMP DP  RH WIND       PRES   REMARKS
RAPID CTY ARPT CLOUDY    71  62  73 VRB5      30.07F
PIERRE         CLOUDY    76  67  73 E12       29.98F
CUSTER         MOSUNNY   68  53  58 VRB6      30.15F
ELLSWORTH AFB  PTSUNNY   70  62  76 NE5       30.07S
PHILIP         CLOUDY    74  64  71 E3        30.02S
PINE RIDGE     PTSUNNY   69  60  73 W5        30.07F
WINNER         FAIR      80  69  69 E13       30.00S
$$

SDZ004>011-016>023-039-040-221900-
NORTHEAST SOUTH DAKOTA

CITY           SKY/WX    TMP DP  RH WIND       PRES   REMARKS
ABERDEEN       CLOUDY    73  67  81 N8        30.01R
WATERTOWN      MOSUNNY   82  69  64 E7        30.00S
SISSETON         N/A     74  70  87 VRB5      29.98F
$$

SDZ017-020-022-023-036>040-048>070-221900-
SOUTHEAST SOUTH DAKOTA

CITY           SKY/WX    TMP DP  RH WIND       PRES   REMARKS
SIOUX FALLS    PTSUNNY   85  70  60 E8        29.98S
HURON          MOSUNNY   83  67  58 NE8       29.97S
CHAMBERLAIN    CLOUDY    79  67  66 E8        29.99S
MITCHELL       MOSUNNY   86  66  51 VRB5      29.98S
YANKTON        MOSUNNY   82  70  65 NE7       29.96F
$$

ABBREVIATIONS USED IN REMARKS
   TC - TEMPERATURE IN CELSIUS
  WCI - WIND CHILL INDEX
   HX - HEAT INDEX
  VSB - VISIBILITY




USA.gov is the U.S. government's official web portal to all federal, state and local government web resources and services.